CZ-4C DEB

Satellite information

Favourite Embed

Satellite Type and Status

DEBRISIN ORBIT

Key statistics

Satellite CZ-4C DEB at a glance.

Uptime

5360

Days in orbit

Revolutions

≈ 13.8

Per day

Orbit

SSO

Sun Synchronous Orbit

Inclination

98.8

Latest

Satellite identification and parameters

Extended collection of information and parameters for CZ-4C DEB.

Object identification

Identified? True

Debris? True

Object name: CZ-4C DEB

International designator: 2010-059G

Object number (NORAD): 38297

Object ID (CCSDS): 38297

Country: PEOPLES REPUBLIC OF CHINA (PRC)

Current information (Y/N): Y

RCS size: SMALL

Orbital parameters

Period: 104.503 minutes

Inclination: 98.7603 deg

SMA: 7349.288 km

Apoapsis: 1144.93 km

Periapsis: 797.376 km

RAAN: 111.1128 deg

Eccentricy: 0.0236454

Argument of periapsis: 247.372 deg

Mean anomaly: 110.2269 deg

Mean motion: 13.7795453 rev/day

Mean motion (dot): 0.00000185 rev/day2

B* drag term: 0.00018354 1/REarth

Two-line elements (TLE)

Creation date: July 5, 2025, 5:45 p.m.

Reference frame: TEME

Reference center: EARTH

Epoch: July 5, 2025, 5:43 a.m. UTC

TLE line 0: 0 CZ-4C DEB

TLE line 1: 1 38297U 10059G 25186.23840158 .00000185 00000-0 18354-3 0 9995

TLE line 2: 2 38297 98.7603 111.1128 0236454 247.3720 110.2269 13.77954530730441

Live tracking on map

Real-time ground track for satellite CZ-4C DEB.

In-orbit conjunctions

A list of the most updated potential collisions computed for object CZ-4C DEB.

Target Orbit TCA Probability of collision Miss distance Type
COSMOS 755 LEO 2025-05-25 22:04:03 0.0001848168 876.0 (m) PAYLOAD

Associated space launch

CZ-4C DEB was lifted into orbit during the mission ‘Long March 4C | Feng Yun-3B’, on board a Long March 4C space rocket.

The launch took place on Nov. 4, 2010, 6:37 p.m. from Launch Complex 7.

For more information about the launch, click the button.

Launch to space Long March 4C | Feng Yun-3B
Long March 4C | Feng Yun-3B

Agency: N/A

Status: Launch Successful

Launch date: Nov. 4, 2010, 6:37 p.m. UTC

Rocket: Long March 4C

Launch pad: Launch Complex 7

Location: Taiyuan Satellite Launch Center, People's Republic of China

...

Latest news about this satellite

There are no fresh news available about this satellite. Check back as we update our databases every day.


Newsletter sign-up

Weekly statistics, charts and insights to help you stay on top of the space industry.